User: anonymous   Login
Location: Remedello Sotto
(45.2500°N, 10.3667°E)
Time: 09:39:36
(UTC+00:00)
Language:

Cosmos 1726 Rocket - Orbit

View from above orbital plane
View from above orbital plane
View from above satellite
View from above satellite

Ground track
Ground track

The orbit data is extracted from the following two-line orbital elements,

1 16496U 86006B   23156.90978372  .00000547  00000-0  61525-4 0  9997
2 16496  82.5234 126.5107 0020741  74.9263 342.2443 14.84703822999568
Epoch (UTC): 05 June 2023 21:50:05
Eccentricity: 0.0020741
inclination: 82.5234°
perigee height: 600 km
apogee height: 629 km
right ascension of ascending node: 126.5107°
argument of perigee: 74.9263°
revolutions per day: 14.84703822
mean anomaly at epoch: 342.2443°
orbit number at epoch: 99956

The dashed part of the orbit path shows where the satellite is in the earth's shadow,  

DLR